Weather History for Monticello, AR

Change the Weather History Date:

Wednesday, August 21, 2013

  Actual Average Record
Temperature  
Mean Temperature 80 °F -  
Max Temperature 93 °F 92 °F 106 °F (2005)
Min Temperature 69 °F 67 °F 55 °F (1956)
Cooling Degree Days 15    
Growing Degree Days 30 (Base 50)    
Moisture  
Dew Point 68 °F    
Average Humidity 67    
Maximum Humidity 90    
Minimum Humidity 45    
Precipitation  
Precipitation 0.00 in - - ()
Sea Level Pressure  
Sea Level Pressure 30.07 in    
Wind  
Wind Speed 2 mph (SE)    
Max Wind Speed 7 mph    
Max Gust Speed -    
Visibility 10 miles    
Events Rain , Thunderstorm    
Averages and records for this station are not official NWS values.
T = Trace of Precipitation, MM = Missing Value Source: NWS Daily Summary

Daily Weather History Graph

Daily Weather History Graph

Search for Another Location

Airport:

Trip Planner

Search our weather history database for the weather conditions in past years. The results will help you decide how hot, cold, wet, or windy it might be!

Date:

Astronomy

Aug. 21, 2013 Rise Set
Actual Time 6:33 AM CDT 7:46 PM CDT
Civil Twilight 6:07 AM CDT 8:11 PM CDT
Nautical Twilight 5:36 AM CDT 8:42 PM CDT
Astronomical Twilight 5:04 AM CDT 9:14 PM CDT
Moon 8:01 PM CDT (8/21) 7:09 AM CDT (8/21)
Length of Visible Light 14h 04m
Length of Day
13h 12m
Waxing Gibbous, 99% of the Moon is Illuminated
Aug 21
Waxing Gibbous
Aug 28
Last Quarter
Sep 5
New
Sep 12
First Quarter
Sep 19
Full

Hourly Weather History & Observations

Time (CDT) Temp. Heat Index Dew Point Humidity Pressure Visibility Wind Dir Wind Speed Gust Speed Precip Events Conditions
12:53 AM 73.0 °F - 66.9 °F 81% 30.05 in 10.0 mi Calm Calm - 0.00 in   Clear
1:53 AM 71.1 °F - 66.9 °F 87% 30.06 in 10.0 mi Calm Calm - N/A   Clear
2:53 AM 69.1 °F - 66.0 °F 90% 30.05 in 10.0 mi Calm Calm - N/A   Clear
3:53 AM 70.0 °F - 66.0 °F 87% 30.05 in 10.0 mi Calm Calm - N/A   Clear
4:53 AM 70.0 °F - 66.0 °F 87% 30.06 in 10.0 mi Calm Calm - N/A   Clear
5:53 AM 71.1 °F - 66.0 °F 84% 30.08 in 10.0 mi Calm Calm - N/A   Clear
6:53 AM 69.1 °F - 66.0 °F 90% 30.09 in 10.0 mi Calm Calm - N/A   Clear
7:53 AM 75.9 °F - 69.1 °F 79% 30.10 in 10.0 mi Calm Calm - N/A   Clear
8:53 AM 82.0 °F 84.9 °F 68.0 °F 62% 30.11 in 10.0 mi West 3.5 mph - 0.00 in Rain Light Rain
9:53 AM 84.9 °F 88.2 °F 68.0 °F 57% 30.12 in 10.0 mi Variable 3.5 mph - 0.00 in   Clear
10:53 AM 88.0 °F 91.4 °F 68.0 °F 51% 30.12 in 10.0 mi SSW 4.6 mph - N/A   Clear
11:53 AM 90.0 °F 92.8 °F 66.9 °F 46% 30.12 in 10.0 mi ENE 3.5 mph - N/A   Mostly Cloudy
12:53 PM 91.0 °F 94.3 °F 66.9 °F 45% 30.09 in 10.0 mi Calm Calm - N/A   Overcast
1:53 PM 90.0 °F 92.8 °F 66.9 °F 46% 30.07 in 10.0 mi WNW 3.5 mph - N/A   Overcast
2:53 PM 91.0 °F 95.6 °F 69.1 °F 48% 30.05 in 10.0 mi ENE 5.8 mph - N/A   Overcast
3:53 PM 91.0 °F 95.2 °F 68.0 °F 47% 30.04 in 10.0 mi East 4.6 mph - N/A   Scattered Clouds
4:53 PM 90.0 °F 93.6 °F 68.0 °F 48% 30.02 in 10.0 mi SSE 4.6 mph - N/A   Scattered Clouds
5:53 PM 90.0 °F 95.4 °F 70.0 °F 52% 30.03 in 10.0 mi SE 5.8 mph - N/A   Mostly Cloudy
6:01 PM 89.6 °F 94.7 °F 69.8 °F 52% 30.04 in 10.0 mi ESE 6.9 mph - N/A Thunderstorm Scattered Clouds
6:45 PM 82.4 °F 86.3 °F 69.8 °F 66% 30.05 in 10.0 mi SE 4.6 mph - N/A   Partly Cloudy
6:53 PM 82.9 °F 87.0 °F 70.0 °F 65% 30.04 in 10.0 mi SE 5.8 mph - N/A   Clear
7:53 PM 82.0 °F 86.3 °F 71.1 °F 69% 30.04 in 10.0 mi Calm Calm - N/A   Clear
8:53 PM 81.0 °F 84.4 °F 70.0 °F 69% 30.06 in 10.0 mi SSE 3.5 mph - N/A   Overcast
9:53 PM 81.0 °F 84.9 °F 71.1 °F 72% 30.08 in 10.0 mi Calm Calm - N/A   Mostly Cloudy
10:53 PM 77.0 °F - 71.1 °F 82% 30.07 in 10.0 mi Calm Calm - N/A   Mostly Cloudy
11:53 PM 77.0 °F - 72.0 °F 84% 30.08 in 10.0 mi Calm Calm - N/A   Scattered Clouds